Tracking 27428 objects as of 31-May-2023
HD Live streaming from Space Station
objects crossing your sky now

COSMOS 2251 DEB

Track COSMOS 2251 DEB now!
10-day predictions


NORAD ID: 37277
Int'l Code: 1993-036BHR
Perigee: 688.4 km
Apogee: 721.2 km
Inclination: 74.0 °
Period: 98.7 minutes
Semi major axis: 7075 km
RCS: 0.0067 m2 (small)
Launch date: June 16, 1993
Source: Commonwealth of Independent States (former USSR) (CIS)
Launch site: PLESETSK MISSILE AND SPACE COMPLEX (PKMTR)

Note: This is SATELLITE DEBRIS
Your satellite tracking list
Your tracking list is empty




NASA's NSSDC Master Catalog

Two Line Element Set (TLE):
1 37277U 93036BHR 23151.04950926  .00010444  00000-0  22377-2 0  9990
2 37277  74.0434  68.4202 0023193 326.9835  32.9880 14.58611315453610
Source of the keplerian elements: AFSPC